Simultaneous Nadir Overpasses (SNOs) Predictions

Prediction of SNOs between AQUA and METOP-B Satellite Orbit:

Table of predicted SNOs for the next 14.0 days since TLE Epoch: 8/5/2023
Index Date (AQUA) Time (AQUA) Lat,Lon (AQUA) SZA (AQUA ) Date (METOP-B) Time (METOP-B) Lat,Lon (METOP-B) SZA (METOP-B ) Distance(km) Time Diff (sec)
1 08/06/2023 19:40:34 -74.68, 60.90 121.93 08/06/2023 19:40:14 -74.70, 60.88 121.91 1.72 20
2 08/06/2023 20:30:00 74.74,-131.59 58.14 08/06/2023 20:30:53 74.74,-131.67 58.14 2.45 53
3 08/09/2023 12:43:31 74.66, -14.74 58.81 08/09/2023 12:42:33 74.65, -14.82 58.82 2.50 58
4 08/09/2023 13:32:56 -74.72, 152.75 121.12 08/09/2023 13:33:13 -74.73, 152.73 121.10 1.72 17
5 08/09/2023 14:22:35 75.43, -41.52 59.67 08/09/2023 14:23:39 75.40, -38.04 59.54 97.79 64
6 08/12/2023 06:35:52 74.71, 77.07 59.67 08/12/2023 06:35:31 74.73, 77.13 59.69 2.59 21
7 08/12/2023 07:25:17 -74.77,-115.43 120.26 08/12/2023 07:26:12 -74.76,-115.44 120.27 0.61 55
8 08/14/2023 23:38:45 -74.70, 1.41 119.52 08/14/2023 23:37:50 -74.71, 1.49 119.51 2.90 55
9 08/15/2023 00:28:11 74.77, 168.87 60.57 08/15/2023 00:28:29 74.74, 168.92 60.54 2.93 18
10 08/17/2023 16:41:26 74.04, -72.70 60.64 08/17/2023 16:40:22 73.99, -75.93 60.69 99.13 64
11 08/17/2023 17:31:03 -74.71, 93.33 118.65 08/17/2023 17:30:49 -74.72, 93.27 118.64 2.14 14



Historial Predications of SNOs between AQUA and METOP-B
